Meteo Giornale » Osservazioni meteo Gran Bretagna » Birmingham-AP

ore: 18:20 - Osservazioni Meteo Birmingham-AP
Lat. 52° 27' N Lon. 1° 44' W Alt. 99 metri s.l.m.

sereno Europe/London

14 °C

Sereno

Temp. 24 Ore

11 °C

18 °C

Sud

7.4 Km/h

Dew point 6 °C

Umidità 58 %

Visibilità  10 Km

Il sole sorge alle ore 07:03

Il sole tramonta alle ore 18:50

Data e Ora Cielo e Fenomeni T °C DP °C Um. % Pres. hPa Vis. km Vento km/h
Oggi h: 18:20 sereno Sereno 14 6 58 1014 10 S 7.4
Oggi h: 17:50 sereno Sereno 16 5 47 1014 10 N 5.5
Oggi h: 17:20 sereno Sereno 17 5 45 1014 10 O 9.3
Oggi h: 16:50 coperto_pioggia Pioggia 18 6 45 1015 10 N 3.7
Oggi h: 16:20 sereno Sereno 17 6 48 1015 10 N 5.5
Oggi h: 15:50 sereno Sereno 17 6 48 1015 10 N 3.7
Oggi h: 15:20 molto_nuvoloso Molto Nuvoloso 16 6 51 1015 10 N 5.5
Oggi h: 14:50 nuvoloso Nuvoloso 18 7 48 1015 10 N 3.7
Oggi h: 14:20 nuvoloso Nuvoloso 17 7 51 1016 10 N 3.7
Oggi h: 13:50 nuvoloso Nuvoloso 16 7 55 1016 10 N 3.7
Oggi h: 13:20 nuvoloso Nuvoloso 17 8 55 1016 10 N/NO 9.3
Oggi h: 12:50 nuvoloso Nuvoloso 15 8 62 1016 10 N 5.5
Oggi h: 12:20 poco_nuvoloso Poco Nuvoloso 16 9 63 1016 10 N 7.4
Oggi h: 11:50 poco_nuvoloso Poco Nuvoloso 15 9 67 1016 10 N/NO 7.4
Oggi h: 11:20 poco_nuvoloso Poco Nuvoloso 15 9 67 1016 10 N 9.3
Oggi h: 10:50 poco_nuvoloso Poco Nuvoloso 14 9 71 1016 10 N 11.1
Oggi h: 10:20 poco_nuvoloso Poco Nuvoloso 14 9 71 1016 10 N 11.1
Oggi h: 09:50 poco_nuvoloso Poco Nuvoloso 13 9 76 1016 10 N/NO 11.1
Oggi h: 09:20 nuvoloso Nuvoloso 12 10 87 1016 8 N/NO 11.1
Oggi h: 08:50 molto_nuvoloso Molto Nuvoloso 11 10 93 1016 8 O/NO 9.3
Oggi h: 08:20 molto_nuvoloso Molto Nuvoloso 12 10 87 1016 8 NO 11.1
Oggi h: 07:50 molto_nuvoloso Molto Nuvoloso 12 11 93 1016 7 NO 9.3
Oggi h: 07:20 molto_nuvoloso Molto Nuvoloso 12 11 93 1015 7 NO 7.4
Oggi h: 06:50 molto_nuvoloso Molto Nuvoloso 12 11 93 1015 7 N/NO 11.1
Oggi h: 06:20 coperto Coperto 13 11 87 1015 8 NO 11.1
Oggi h: 05:50 molto_nuvoloso Molto Nuvoloso 13 11 87 1015 6 NO 11.1
Oggi h: 05:20 molto_nuvoloso Molto Nuvoloso 13 12 93 1015 6 NO 11.1
Oggi h: 04:50 molto_nuvoloso Molto Nuvoloso 13 12 93 1014 6 N/NO 9.3
Oggi h: 04:20 molto_nuvoloso Molto Nuvoloso 13 12 93 1014 6 N/NO 14.8
Oggi h: 03:50 molto_nuvoloso Molto Nuvoloso 13 12 93 1014 6 NO 13
Oggi h: 03:20 molto_nuvoloso Molto Nuvoloso 13 12 93 1014 9 N/NO 13
Oggi h: 02:50 coperto Coperto 13 12 93 1014 8 N/NO 14.8
Oggi h: 02:20 coperto Coperto 13 12 93 1014 10 N/NO 14.8
Oggi h: 01:50 molto_nuvoloso Molto Nuvoloso 13 12 93 1014 10 N/NO 14.8
Oggi h: 01:20 molto_nuvoloso Molto Nuvoloso 14 13 93 1014 7 N/NO 16.7
Oggi h: 00:50 molto_nuvoloso Molto Nuvoloso 14 13 93 1014 10 NO 14.8
Oggi h: 00:20 molto_nuvoloso Molto Nuvoloso 14 13 93 1014 10 NO 13
Ieri h: 23:50 molto_nuvoloso Molto Nuvoloso 14 13 93 1014 10 NO 13
Ieri h: 23:20 molto_nuvoloso Molto Nuvoloso 14 13 93 1014 10 N/NO 11.1
Ieri h: 22:50 coperto_pioggia Pioviggine Leggera 14 14 100 1014 2 O/NO 11.1
Ieri h: 22:20 coperto_pioggia Pioggia 14 14 100 1014 3 N 1.8
Ieri h: 21:50 coperto_pioggia Pioggia Debole 14 14 100 1014 3 N 3.7
Ieri h: 21:20 coperto_pioggia Pioggia Debole 15 13 87 1013 4 N 5.5
Ieri h: 20:50 coperto Coperto 15 13 87 1013 8 N 5.5
Ieri h: 20:20 coperto_pioggia Pioggia 15 12 82 1013 5 N 3.7
Ieri h: 19:50 coperto Coperto 15 12 82 1013 10 N 3.7
Ieri h: 18:50 coperto Coperto 15 12 82 1013 10 N 5.5